| time (UTC) | temp F | wind direction | speed MPH | gust MPH | rain 1hr in | rain 24hr in | rain mn in | humidity % | barometer mb |
| 20260904163036 | 88 | 103 | 2.0 | 9.0 | 0.00 | 0.00 | 0.00 | 69 | 1012.0 |
| 20260904161534 | 88 | 220 | 4.0 | 13.0 | 0.00 | 0.00 | 0.00 | 69 | 1012.0 |
| 20260904160030 | 86 | 247 | 5.0 | 9.0 | 0.00 | 0.00 | 0.00 | 72 | 1011.9 |
| 20260904154528 | 85 | 216 | 3.0 | 9.0 | 0.00 | 0.00 | 0.00 | 75 | 1011.9 |
| 20260904153023 | 84 | 180 | 3.0 | 10.0 | 0.00 | 0.00 | 0.00 | 79 | 1011.8 |
| 20260904151522 | 84 | 236 | 4.0 | 8.0 | 0.00 | 0.00 | 0.00 | 79 | 1011.9 |
| 20260904150030 | 83 | 194 | 1.0 | 9.0 | 0.00 | 0.00 | 0.00 | 83 | 1011.8 |
| 20260904144515 | 82 | 193 | 2.0 | 6.0 | 0.00 | 0.00 | 0.00 | 87 | 1011.8 |
| 20260904143012 | 80 | 123 | 0.0 | 5.0 | 0.00 | 0.00 | 0.00 | 88 | 1011.8 |
| 20260904141512 | 80 | 137 | 1.0 | 5.0 | 0.00 | 0.00 | 0.00 | 89 | 1011.9 |
| 20260904140007 | 79 | 153 | 1.0 | 4.0 | 0.00 | 0.00 | 0.00 | 90 | 1011.8 |
| 20260904134503 | 79 | 114 | 0.0 | 5.0 | 0.00 | 0.00 | 0.00 | 90 | 1011.6 |
| 20260904133006 | 79 | 122 | 0.0 | 3.0 | 0.00 | 0.00 | 0.00 | 90 | 1011.5 |
| 20260904131600 | 79 | 144 | 0.0 | 5.0 | 0.00 | 0.00 | 0.00 | 90 | 1011.4 |
| 20260904130057 | 78 | 131 | 0.0 | 7.0 | 0.00 | 0.00 | 0.00 | 90 | 1011.1 |
| 20260904124604 | 78 | 93 | 1.0 | 5.0 | 0.00 | 0.00 | 0.00 | 90 | 1011.0 |
| 20260904123054 | 78 | 137 | 1.0 | 6.0 | 0.00 | 0.00 | 0.00 | 90 | 1010.9 |
| 20260904121554 | 78 | 100 | 0.0 | 5.0 | 0.00 | 0.00 | 0.00 | 90 | 1010.8 |
| 20260904120059 | 78 | 114 | 0.0 | 4.0 | 0.00 | 0.00 | 0.00 | 90 | 1010.7 |
| 20260904114550 | 78 | 131 | 0.0 | 4.0 | 0.00 | 0.00 | 0.00 | 90 | 1010.6 |
| 20260904113050 | 78 | 105 | 1.0 | 6.0 | 0.00 | 0.00 | 0.00 | 90 | 1010.6 |
| 20260904111549 | 78 | 117 | 0.0 | 4.0 | 0.00 | 0.00 | 0.00 | 90 | 1010.5 |
| 20260904110047 | 78 | 143 | 0.0 | 3.0 | 0.00 | 0.00 | 0.00 | 90 | 1010.6 |
| 20260904104547 | 78 | 118 | 0.0 | 3.0 | 0.00 | 0.00 | 0.00 | 89 | 1010.3 |
| 20260904103048 | 78 | 134 | 0.0 | 4.0 | 0.00 | 0.00 | 0.00 | 89 | 1010.3 |
| 20260904101556 | 78 | 158 | 0.0 | 5.0 | 0.00 | 0.00 | 0.00 | 89 | 1010.3 |
| 20260904100046 | 78 | 154 | 0.0 | 5.0 | 0.00 | 0.00 | 0.00 | 89 | 1010.2 |
| 20260904094550 | 78 | 113 | 0.0 | 2.0 | 0.00 | 0.00 | 0.00 | 89 | 1010.1 |
| 20260904093047 | 78 | 125 | 0.0 | 3.0 | 0.00 | 0.00 | 0.00 | 88 | 1010.2 |
| 20260904091543 | 79 | 123 | 1.0 | 3.0 | 0.00 | 0.00 | 0.00 | 88 | 1010.2 |
| 20260904090045 | 79 | 132 | 0.0 | 3.0 | 0.00 | 0.00 | 0.00 | 87 | 1010.1 |
| 20260904084541 | 79 | 106 | 1.0 | 4.0 | 0.00 | 0.00 | 0.00 | 87 | 1010.2 |
| 20260904083040 | 79 | 133 | 0.0 | 2.0 | 0.00 | 0.00 | 0.00 | 87 | 1010.1 |
| 20260904081539 | 79 | 148 | 0.0 | 1.0 | 0.00 | 0.00 | 0.00 | 87 | 1010.1 |
| 20260904080040 | 79 | 185 | 0.0 | 1.0 | 0.00 | 0.00 | 0.00 | 86 | 1010.0 |
| 20260904074537 | 79 | 152 | 0.0 | 4.0 | 0.00 | 0.00 | 0.00 | 85 | 1010.1 |
| 20260904073040 | 79 | 124 | 1.0 | 4.0 | 0.00 | 0.00 | 0.00 | 85 | 1010.1 |
| 20260904071535 | 79 | 191 | 0.0 | 5.0 | 0.00 | 0.00 | 0.00 | 84 | 1010.2 |
| 20260904070042 | 80 | 180 | 0.0 | 6.0 | 0.00 | 0.00 | 0.00 | 84 | 1010.2 |
| 20260904064540 | 80 | 177 | 0.0 | 4.0 | 0.00 | 0.00 | 0.00 | 83 | 1010.3 |
| 20260904063035 | 80 | 160 | 0.0 | 4.0 | 0.00 | 0.00 | 0.00 | 83 | 1010.4 |
| 20260904061538 | 80 | 243 | 1.0 | 4.0 | 0.00 | 0.00 | 0.00 | 82 | 1010.5 |
| 20260904060051 | 79 | 176 | 1.0 | 3.0 | 0.00 | 0.00 | 0.00 | 81 | 1010.5 |
| 20260904054539 | 80 | 117 | 1.0 | 6.0 | 0.00 | 0.00 | 0.00 | 79 | 1010.5 |
| 20260904053032 | 80 | 189 | 0.0 | 7.0 | 0.00 | 0.00 | 0.00 | 78 | 1010.4 |
| 20260904051525 | 80 | 129 | 2.0 | 5.0 | 0.00 | 0.00 | 0.00 | 77 | 1010.3 |
| 20260904050036 | 80 | 178 | 1.0 | 5.0 | 0.00 | 0.00 | 0.00 | 76 | 1010.2 |
| 20260904044526 | 81 | 109 | 0.0 | 3.0 | 0.00 | 0.00 | 0.00 | 75 | 1010.2 |
| 20260904043020 | 81 | 111 | 1.0 | 5.0 | 0.00 | 0.00 | 0.00 | 74 | 1010.1 |
| 20260904041522 | 82 | 195 | 1.0 | 5.0 | 0.00 | 0.00 | 0.00 | 73 | 1010.1 |
| 20260904040035 | 82 | 128 | 1.0 | 6.0 | 0.00 | 0.00 | 0.00 | 74 | 1010.1 |
| 20260904034521 | 82 | 121 | 1.0 | 9.0 | 0.00 | 0.00 | 0.00 | 74 | 1010.2 |
| 20260904033017 | 82 | 120 | 0.0 | 8.0 | 0.00 | 0.00 | 0.00 | 74 | 1010.2 |
| 20260904031522 | 83 | 117 | 1.0 | 6.0 | 0.00 | 0.00 | 0.00 | 73 | 1010.2 |
| 20260904030016 | 83 | 346 | 1.0 | 8.0 | 0.00 | 0.00 | 0.00 | 73 | 1010.2 |
| 20260904024516 | 83 | 105 | 2.0 | 5.0 | 0.00 | 0.00 | 0.00 | 73 | 1009.9 |
| 20260904023019 | 84 | 134 | 0.0 | 6.0 | 0.00 | 0.00 | 0.00 | 73 | 1009.7 |
| 20260904021527 | 84 | 101 | 2.0 | 7.0 | 0.00 | 0.00 | 0.00 | 74 | 1009.6 |
| 20260904020015 | 84 | 109 | 1.0 | 8.0 | 0.00 | 0.00 | 0.00 | 73 | 1009.1 |
| 20260904014514 | 85 | 164 | 2.0 | 7.0 | 0.00 | 0.00 | 0.00 | 72 | 1008.9 |
| 20260904013013 | 86 | 74 | 2.0 | 6.0 | 0.00 | 0.00 | 0.00 | 69 | 1008.7 |
| 20260904011514 | 87 | 148 | 2.0 | 11.0 | 0.00 | 0.00 | 0.00 | 68 | 1008.4 |
| 20260904010013 | 87 | 99 | 1.0 | 9.0 | 0.00 | 0.00 | 0.00 | 67 | 1008.1 |
| 20260904004516 | 88 | 135 | 3.0 | 8.0 | 0.00 | 0.00 | 0.00 | 67 | 1008.2 |
| 20260904003021 | 88 | 214 | 2.0 | 9.0 | 0.00 | 0.00 | 0.00 | 67 | 1008.1 |
| 20260904001511 | 89 | 134 | 2.0 | 12.0 | 0.00 | 0.00 | 0.00 | 66 | 1008.0 |
| 20260904000011 | 89 | 89 | 3.0 | 10.0 | 0.00 | 0.00 | 0.00 | 66 | 1007.9 |
| 20260903234510 | 90 | 178 | 3.0 | 9.0 | 0.00 | 0.00 | 0.00 | 65 | 1007.8 |
| 20260903233016 | 91 | 160 | 1.0 | 8.0 | 0.00 | 0.00 | 0.00 | 64 | 1007.7 |
| 20260903231509 | 92 | 131 | 3.0 | 11.0 | 0.00 | 0.00 | 0.00 | 64 | 1007.5 |
| 20260903230008 | 92 | 105 | 2.0 | 10.0 | 0.00 | 0.00 | 0.00 | 64 | 1007.5 |
| 20260903224513 | 93 | 176 | 2.0 | 9.0 | 0.00 | 0.00 | 0.00 | 63 | 1007.6 |
| 20260903223011 | 94 | 95 | 3.0 | 8.0 | 0.00 | 0.00 | 0.00 | 62 | 1007.6 |
| 20260903221507 | 93 | 115 | 4.0 | 11.0 | 0.00 | 0.00 | 0.00 | 62 | 1007.4 |
| 20260903220005 | 94 | 157 | 2.0 | 6.0 | 0.00 | 0.00 | 0.00 | 62 | 1007.5 |
| 20260903214504 | 94 | 169 | 3.0 | 0.0 | 0.00 | 0.00 | 0.00 | 63 | 1007.7 |
| 20260903213111 | 93 | 73 | 4.0 | 14.0 | 0.00 | 0.00 | 0.00 | 64 | 1007.7 |
| 20260903211556 | 92 | 214 | 2.0 | 10.0 | 0.00 | 0.00 | 0.00 | 65 | 1007.8 |
| 20260903210058 | 92 | 244 | 1.0 | 8.0 | 0.00 | 0.00 | 0.00 | 64 | 1008.0 |
| 20260903204550 | 92 | 96 | 2.0 | 11.0 | 0.00 | 0.00 | 0.00 | 67 | 1008.3 |
| 20260903203052 | 91 | 134 | 2.0 | 7.0 | 0.00 | 0.00 | 0.00 | 69 | 1008.5 |
| 20260903201545 | 91 | 252 | 2.0 | 7.0 | 0.00 | 0.00 | 0.00 | 67 | 1008.7 |
| 20260903200040 | 92 | 144 | 2.0 | 9.0 | 0.00 | 0.00 | 0.00 | 68 | 1008.7 |
| 20260903194537 | 91 | 162 | 2.0 | 8.0 | 0.00 | 0.00 | 0.00 | 68 | 1008.8 |
| 20260903193036 | 91 | 257 | 3.0 | 9.0 | 0.00 | 0.00 | 0.00 | 68 | 1009.0 |
| 20260903191539 | 90 | 98 | 2.0 | 9.0 | 0.00 | 0.00 | 0.00 | 71 | 1009.2 |
| 20260903190027 | 90 | 46 | 3.0 | 10.0 | 0.00 | 0.00 | 0.00 | 72 | 1009.4 |
| 20260903184525 | 90 | 233 | 2.0 | 9.0 | 0.00 | 0.00 | 0.00 | 72 | 1009.8 |
| 20260903183028 | 89 | 251 | 2.0 | 10.0 | 0.00 | 0.00 | 0.00 | 73 | 1009.8 |
| 20260903181521 | 89 | 124 | 2.0 | 7.0 | 0.00 | 0.00 | 0.00 | 72 | 1009.9 |
| 20260903180026 | 89 | 84 | 2.0 | 12.0 | 0.00 | 0.00 | 0.00 | 74 | 1010.0 |
| 20260903174516 | 88 | 110 | 2.0 | 11.0 | 0.00 | 0.00 | 0.00 | 74 | 1010.2 |
| 20260903173013 | 87 | 190 | 2.0 | 8.0 | 0.00 | 0.00 | 0.00 | 76 | 1010.4 |
| 20260903171511 | 87 | 198 | 2.0 | 6.0 | 0.00 | 0.00 | 0.00 | 75 | 1010.5 |
| 20260903170013 | 87 | 150 | 3.0 | 6.0 | 0.00 | 0.00 | 0.00 | 77 | 1010.5 |
| 20260903164510 | 86 | 133 | 3.0 | 10.0 | 0.00 | 0.00 | 0.00 | 77 | 1010.6 |